Regional Weather Roundup
Issued by NWS Cleveland, OH

Home | Current Version | Previous Version | Graphics & Text | Print | Product List | Glossary On
Versions: 1 2 3 4 5 6 7 8 9 10 11 12 13 14 15 16 17 18 19 20 21 22 23 24 25 26 27 28 29 30 31 32 33 34 35 36 37 38 39 40 41 42 43 44 45 46 47 48 49 50
163
ASUS41 KCLE 300912
RWRCLE
OHIO REGIONAL WEATHER ROUNDUP
NATIONAL WEATHER SERVICE WILMINGTON, OH
500 AM EDT TUE AUG 30 2016

NOTE: "FAIR" INDICATES FEW OR NO CLOUDS BELOW 12,000 FEET WITH NO
SIGNIFICANT WEATHER AND/OR OBSTRUCTIONS TO VISIBILITY.

OHZ001>008-015>018-024>027-034-035-043-044-301000-
   NORTHWEST OHIO

CITY           SKY/WX    TMP DP  RH WIND       PRES   REMARKS
DEFIANCE       FAIR      64  61  90 CALM      30.18F
FINDLAY        FAIR      60  56  86 CALM      30.17F
TOLEDO EXPRESS FAIR      61  61 100 CALM      30.19S
TOLEDO EXEC    FOG       62  62 100 NW3       30.19S VSB 1/2
LIMA           FAIR      64  63  96 CALM      30.18F
$$

OHZ009>014-019>023-028>033-038-089-301000-
   NORTHEAST OHIO

CITY           SKY/WX    TMP DP  RH WIND       PRES   REMARKS
CLE-HOPKINS    FAIR      63  56  78 CALM      30.21F
CLE-LAKEFRONT  FAIR      67  57  70 SE9       30.18F
CUY CO. ARPT   NOT AVBL
LORAIN-ELYRIA  FAIR      58  56  93 S3        30.20F
ASHTABULA      FAIR      55  55 100 CALM      30.21S
AKRON-CANTON   FAIR      63  55  75 E6        30.20F
WOOSTER        FAIR      57  56  96 CALM      30.21F
MANSFIELD      FAIR      64  57  78 SE6       30.21F
YOUNGSTOWN     FAIR      56  54  93 E5        30.21S
$$

OHZ042-051>053-060>062-070>072-077>081-301000-
  SOUTHWEST OHIO

CITY           SKY/WX    TMP DP  RH WIND       PRES   REMARKS
CINC-COVINGTON FAIR      74  70  87 NE7       30.17S
CINC-LUNKEN    FAIR      68  68 100 CALM      30.16F FOG
HAMILTON       FAIR      66  64  93 CALM      30.17F
DAYTON         FAIR      68  64  87 NE3       30.19F
WRIGHT-PAT AFB PTCLDY    69  66  91 CALM      30.18S
DAYTON GENERAL FAIR      69  64  84 E7        30.17F
WILMINGTON     FAIR      66  64  93 NE8       30.18F
$$

OHZ036-037-039>041-045>050-054>059-063>069-073>076-082>088-301000-
  CENTRAL AND SOUTHEAST OHIO

CITY           SKY/WX    TMP DP  RH WIND       PRES   REMARKS
COLUMBUS       FAIR      67  60  78 CALM      30.18S
OSU AIRPORT    FAIR      64  61  90 N3        30.19S
BOLTON FIELD   FAIR      63  60  91 CALM      30.19F
RICKENBACK AFB FAIR      64  62  91 NE3       30.18S
NEWARK         FAIR      60  59  96 CALM      30.19S
MARION         FAIR      63  59  87 CALM      30.20F
LANCASTER      FAIR      62  61  96 NW3       30.19R
ZANESVILLE     FAIR      61  59  93 CALM      30.19S
NEW PHILLY     FAIR      60  55  83 CALM      30.20F
$$




USA.gov is the U.S. government's official web portal to all federal, state and local government web resources and services.